GW6738 Weather Reports


time (UTC)temp
F
wind
direction
speed
knots
gust
knots
rain 1hr
in
rain 24hr
in
rain mn
in
humidity
%
barometer
mb
20260503055006 41 303 0.0 1.7 0.00 0.00 0.00 81 1016.7
20260503054518 41 303 0.0 0.0 0.00 0.00 0.00 80 1016.7
20260503054006 41 303 0.0 0.0 0.00 0.00 0.00 80 1016.6
20260503053508 41 303 0.0 0.0 0.00 0.00 0.00 80 1016.6
20260503053022 41 303 0.0 0.0 0.00 0.00 0.00 80 1016.6
20260503052507 42 303 0.0 0.0 0.00 0.00 0.00 80 1016.7
20260503052008 42 303 0.0 0.0 0.00 0.00 0.00 79 1016.6
20260503051527 42 303 0.0 0.0 0.00 0.00 0.00 79 1016.6
20260503051012 42 303 0.0 0.0 0.00 0.00 0.00 80 1016.6
20260503050512 42 303 0.0 0.0 0.00 0.00 0.00 80 1016.5
20260503050026 43 303 0.0 0.0 0.00 0.00 0.00 80 1016.5
20260503045507 43 303 0.0 1.7 0.00 0.00 0.00 78 1016.5
20260503045012 43 303 0.0 1.7 0.00 0.00 0.00 76 1016.5
20260503044522 43 303 0.0 1.7 0.00 0.00 0.00 78 1016.5
20260503044008 43 303 0.0 0.0 0.00 0.00 0.00 77 1016.4
20260503043506 43 303 0.0 0.9 0.00 0.00 0.00 78 1016.5
20260503043020 43 303 0.0 0.9 0.00 0.00 0.00 78 1016.4
20260503042507 44 303 0.0 0.0 0.00 0.00 0.00 79 1016.3
20260503042008 44 303 0.0 0.0 0.00 0.00 0.00 79 1016.2
20260503041522 44 303 0.0 0.0 0.00 0.00 0.00 79 1016.2
20260503041007 44 303 0.0 1.7 0.00 0.00 0.00 78 1016.1
20260503040509 44 303 0.0 1.7 0.00 0.00 0.00 77 1016.0
20260503040029 45 303 0.0 0.0 0.00 0.00 0.00 77 1016.0
20260503035514 45 303 0.0 0.0 0.00 0.00 0.00 75 1015.9
20260503035007 45 303 0.0 0.0 0.00 0.00 0.00 75 1015.9
20260503034526 45 303 0.0 0.0 0.00 0.00 0.00 75 1015.9
20260503034007 45 303 0.0 0.0 0.00 0.00 0.00 74 1015.8
20260503033506 46 303 0.0 1.7 0.00 0.00 0.00 74 1015.8
20260503033018 46 303 0.0 1.7 0.00 0.00 0.00 72 1015.8
20260503032507 46 303 0.0 0.0 0.00 0.00 0.00 72 1015.8
20260503032007 47 303 0.0 0.0 0.00 0.00 0.00 71 1015.8
20260503031522 47 303 0.0 0.0 0.00 0.00 0.00 69 1015.8
20260503031008 47 303 0.0 0.0 0.00 0.00 0.00 66 1015.9
20260503030508 48 303 0.0 0.0 0.00 0.00 0.00 64 1015.9
20260503030024 48 303 0.0 1.7 0.00 0.00 0.00 64 1015.8
20260503025507 48 303 0.0 1.7 0.00 0.00 0.00 62 1015.8
20260503025008 49 303 0.0 0.0 0.00 0.00 0.00 62 1015.8
20260503024510 49 303 0.0 0.0 0.00 0.00 0.00 61 1015.7
20260503024006 49 303 0.0 1.7 0.00 0.00 0.00 60 1015.8
20260503023506 50 303 0.0 1.7 0.00 0.00 0.00 60 1015.8
20260503023015 50 303 0.0 1.7 0.00 0.00 0.00 58 1015.8
20260503022503 51 303 0.0 0.0 0.00 0.00 0.00 57 1015.7
20260503022010 51 303 0.0 0.0 0.00 0.00 0.00 56 1015.7
20260503021518 51 303 0.0 1.7 0.00 0.00 0.00 57 1015.7
20260503021006 52 303 0.0 1.7 0.00 0.00 0.00 55 1015.6
20260503020507 52 303 0.0 1.7 0.00 0.00 0.00 53 1015.5
20260503020011 52 303 0.0 1.7 0.00 0.00 0.00 53 1015.5
20260503015504 53 303 0.0 1.7 0.00 0.00 0.00 54 1015.4
20260503015003 53 303 0.0 1.7 0.00 0.00 0.00 53 1015.5
20260503014510 53 303 0.0 2.6 0.00 0.00 0.00 53 1015.3
20260503014004 53 303 0.0 2.6 0.00 0.00 0.00 53 1015.2
20260503013504 53 290 0.0 1.7 0.00 0.00 0.00 52 1015.2
20260503013012 54 294 0.0 2.6 0.00 0.00 0.00 54 1015.1
20260503012506 54 214 0.0 2.6 0.00 0.00 0.00 55 1015.0
20260503012005 54 216 0.0 2.6 0.00 0.00 0.00 56 1014.9
20260503011517 54 289 0.0 2.6 0.00 0.00 0.00 58 1014.8
20260503011007 54 302 0.0 2.6 0.00 0.00 0.00 59 1014.7
20260503010506 54 226 0.0 1.7 0.00 0.00 0.00 65 1014.6
20260503010021 54 279 0.0 5.2 0.00 0.00 0.00 62 1014.5
20260503005508 54 279 0.0 5.2 0.00 0.00 0.00 64 1014.4
20260503005003 54 272 0.9 3.5 0.00 0.00 0.00 63 1014.2
20260503004524 54 207 0.0 1.7 0.00 0.00 0.00 65 1014.1
20260503004003 55 207 0.0 1.7 0.00 0.00 0.00 64 1014.1
20260503003504 55 196 0.0 1.7 0.00 0.00 0.00 63 1013.9
20260503003010 55 196 0.0 1.7 0.00 0.00 0.00 64 1013.9
20260503002505 55 140 0.0 1.7 0.00 0.00 0.00 62 1013.8
20260503002007 56 134 0.0 1.7 0.00 0.00 0.00 63 1013.7
20260503001516 56 134 0.0 0.0 0.00 0.00 0.00 60 1013.6
20260503001009 56 134 0.0 0.0 0.00 0.00 0.00 60 1013.6
20260503000507 56 134 0.0 0.0 0.00 0.00 0.00 58 1013.5
20260503000021 57 134 0.0 0.0 0.00 0.00 0.00 58 1013.5
20260502235507 57 134 0.0 0.0 0.00 0.00 0.00 57 1013.4
20260502235011 57 134 0.0 0.0 0.00 0.00 0.00 55 1013.4
20260502234522 57 134 0.0 0.0 0.00 0.00 0.00 54 1013.2
20260502234003 57 134 0.0 0.0 0.00 0.00 0.00 53 1013.2
20260502233502 57 134 0.0 0.0 0.00 0.00 0.00 52 1013.2
20260502233019 57 134 0.0 0.0 0.00 0.00 0.00 53 1013.1
20260502232504 58 134 0.0 0.0 0.00 0.00 0.00 51 1013.1
20260502232004 58 134 0.0 0.0 0.00 0.00 0.00 51 1013.0
20260502231514 58 134 0.0 0.0 0.00 0.00 0.00 51 1012.9
20260502231006 58 134 0.0 0.0 0.00 0.00 0.00 48 1012.8
20260502230507 58 134 0.0 0.0 0.00 0.00 0.00 50 1012.8
20260502230023 59 134 0.0 0.0 0.00 0.00 0.00 50 1012.7
20260502225507 59 134 0.0 1.7 0.00 0.00 0.00 48 1012.7
20260502225005 59 134 0.0 1.7 0.00 0.00 0.00 49 1012.5
20260502224521 59 134 0.0 0.0 0.00 0.00 0.00 46 1012.5
20260502224007 59 134 0.0 0.0 0.00 0.00 0.00 48 1012.5
20260502223508 59 134 0.0 1.7 0.00 0.00 0.00 47 1012.5
20260502223022 59 134 0.0 1.7 0.00 0.00 0.00 48 1012.5
20260502222503 60 134 0.0 1.7 0.00 0.00 0.00 49 1012.4
20260502222004 60 134 0.0 1.7 0.00 0.00 0.00 46 1012.3
20260502221510 60 134 0.0 1.7 0.00 0.00 0.00 42 1012.3
20260502221011 60 96 0.0 2.6 0.00 0.00 0.00 43 1012.2
20260502220507 60 96 0.9 2.6 0.00 0.00 0.00 42 1012.2
20260502220014 61 117 0.9 2.6 0.00 0.00 0.00 42 1012.1
20260502215506 61 126 0.9 1.7 0.00 0.00 0.00 41 1012.1
20260502215008 61 153 0.0 2.6 0.00 0.00 0.00 41 1012.0
20260502214534 61 118 1.7 2.6 0.00 0.00 0.00 40 1012.0
20260502214007 61 203 0.0 3.5 0.00 0.00 0.00 44 1011.9
20260502213507 61 129 1.7 3.5 0.00 0.00 0.00 40 1012.0
20260502213029 61 101 0.9 2.6 0.00 0.00 0.00 43 1012.0
20260502212508 61 229 0.9 5.2 0.00 0.00 0.00 42 1011.9
20260502212009 61 128 2.6 5.2 0.00 0.00 0.00 40 1011.9
20260502211522 61 98 0.9 5.2 0.00 0.00 0.00 42 1011.8
20260502211003 61 86 2.6 5.2 0.00 0.00 0.00 41 1011.8
20260502210504 61 32 0.0 6.1 0.00 0.00 0.00 42 1011.8
20260502210025 61 109 2.6 6.1 0.00 0.00 0.00 40 1011.8
20260502205509 61 71 1.7 5.2 0.00 0.00 0.00 43 1011.7
20260502205006 61 130 0.9 5.2 0.00 0.00 0.00 42 1011.8
20260502204518 60 73 0.0 2.6 0.00 0.00 0.00 43 1011.7
20260502204008 60 111 1.7 8.7 0.00 0.00 0.00 41 1011.8
20260502203506 59 9 0.9 8.7 0.00 0.00 0.00 43 1011.8
20260502203022 59 134 1.7 7.0 0.00 0.00 0.00 43 1011.9
20260502202506 59 105 4.3 7.0 0.00 0.00 0.00 42 1011.9
20260502202008 59 128 0.9 6.1 0.00 0.00 0.00 45 1012.0
20260502201524 58 119 0.9 6.1 0.00 0.00 0.00 43 1012.1
20260502201010 58 80 0.9 5.2 0.00 0.00 0.00 44 1012.2
20260502200503 58 135 0.9 7.8 0.00 0.00 0.00 43 1012.3
20260502200014 59 121 3.5 7.8 0.00 0.00 0.00 43 1012.2
20260502195506 58 77 0.0 7.0 0.00 0.00 0.00 43 1012.3
20260502195011 58 105 2.6 7.0 0.00 0.00 0.00 43 1012.4
20260502194516 58 120 1.7 5.2 0.00 0.00 0.00 44 1012.5
20260502194006 58 91 0.9 5.2 0.00 0.00 0.00 43 1012.6
20260502193511 58 110 2.6 7.0 0.00 0.00 0.00 42 1012.8
20260502193018 58 84 1.7 7.0 0.00 0.00 0.00 43 1013.0
20260502192509 58 111 1.7 5.2 0.00 0.00 0.00 43 1013.1
20260502192008 58 116 0.9 6.1 0.00 0.00 0.00 43 1013.1
20260502191521 58 137 1.7 6.1 0.00 0.00 0.00 44 1013.2
20260502191008 57 69 0.0 3.5 0.00 0.00 0.00 43 1013.2
20260502190510 57 75 1.7 4.3 0.00 0.00 0.00 43 1013.2
20260502190032 57 90 1.7 4.3 0.00 0.00 0.00 43 1013.1
20260502185507 57 118 0.0 3.5 0.00 0.00 0.00 45 1013.3
20260502185004 57 107 1.7 4.3 0.00 0.00 0.00 41 1013.3
20260502184514 57 72 0.9 5.2 0.00 0.00 0.00 43 1013.4
20260502184005 57 70 0.9 5.2 0.00 0.00 0.00 44 1013.4
20260502183503 56 119 2.6 5.2 0.00 0.00 0.00 44 1013.5
20260502183018 56 76 0.9 3.5 0.00 0.00 0.00 43 1013.6
20260502182504 56 88 1.7 6.1 0.00 0.00 0.00 43 1013.8
20260502182011 56 70 2.6 6.1 0.00 0.00 0.00 43 1013.8
20260502181522 56 84 2.6 7.0 0.00 0.00 0.00 44 1013.8
20260502181008 56 55 0.0 7.0 0.00 0.00 0.00 46 1013.8
20260502180509 56 67 1.7 6.1 0.00 0.00 0.00 45 1013.8
20260502170509 54 84 0.9 2.6 0.00 0.00 0.00 46 1014.5
20260502164011 55 54 0.9 4.3 0.00 0.00 0.00 45 1014.9
20260502163509 55 77 1.7 4.3 0.00 0.00 0.00 45 1014.9
20260502163019 55 49 0.9 3.5 0.00 0.00 0.00 46 1014.9
20260502162504 55 67 0.9 5.2 0.00 0.00 0.00 45 1015.0
20260502162008 55 24 0.9 5.2 0.00 0.00 0.00 47 1015.0
20260502161516 55 80 0.9 2.6 0.00 0.00 0.00 47 1015.0
20260502161007 55 75 0.9 3.5 0.00 0.00 0.00 49 1015.1
20260502160508 54 11 0.0 3.5 0.00 0.00 0.00 49 1014.9
20260502152005 54 286 0.0 3.5 0.00 0.00 0.00 53 1015.3
20260502151522 54 298 0.0 3.5 0.00 0.00 0.00 52 1015.3
20260502151003 54 277 0.0 1.7 0.00 0.00 0.00 52 1015.2
20260502150508 54 213 0.0 1.7 0.00 0.00 0.00 52 1015.0
20260502130511 54 24 0.0 1.7 0.00 0.00 0.00 70 1014.4
20260502123512 54 9 0.0 1.7 0.00 0.00 0.00 71 1014.4
20260502123028 54 57 0.0 1.7 0.00 0.00 0.00 72 1013.9
20260502122512 53 101 0.0 1.7 0.00 0.00 0.00 72 1013.8
20260502122011 53 103 0.0 1.7 0.00 0.00 0.00 72 1013.7
20260502121526 53 123 0.0 1.7 0.00 0.00 0.00 72 1013.7
20260502121010 53 123 0.0 1.7 0.00 0.00 0.00 72 1013.8
20260502120511 53 128 0.0 1.7 0.00 0.00 0.00 74 1014.0
20260502115509 53 163 0.0 1.7 0.00 0.00 0.00 73 1014.0
20260502115007 53 163 0.0 1.7 0.00 0.00 0.00 73 1013.8
20260502114537 53 163 0.0 1.7 0.00 0.00 0.00 73 1013.8
20260502114005 53 215 0.0 1.7 0.00 0.00 0.00 74 1014.0
20260502113507 52 206 0.0 1.7 0.00 0.00 0.00 75 1014.0
20260502113025 52 242 0.0 1.7 0.00 0.00 0.00 76 1013.6
20260502112507 52 252 0.0 1.7 0.00 0.00 0.00 75 1013.6
20260502112009 52 275 0.0 1.7 0.00 0.00 0.00 76 1013.7
20260502111526 52 275 0.0 1.7 0.00 0.00 0.00 76 1013.8
20260502111011 52 275 0.0 1.7 0.00 0.00 0.00 77 1013.7
20260502110510 52 275 0.0 0.9 0.00 0.00 0.00 76 1013.7
20260502110028 52 275 0.0 1.7 0.00 0.00 0.00 76 1013.6
20260502105512 52 275 0.0 1.7 0.00 0.00 0.00 77 1013.5
20260502105011 52 275 0.0 1.7 0.00 0.00 0.00 77 1013.5
20260502104530 52 275 0.0 1.7 0.00 0.00 0.00 78 1013.6
20260502104009 52 275 0.0 1.7 0.00 0.00 0.00 79 1013.6
20260502103514 52 275 0.0 1.7 0.00 0.00 0.00 79 1013.5
20260502103018 52 275 0.0 0.0 0.00 0.00 0.00 79 1013.5
20260502102507 52 275 0.0 0.0 0.00 0.00 0.00 79 1013.6
20260502102006 52 275 0.0 0.9 0.00 0.00 0.00 80 1013.6
20260502101526 52 275 0.0 1.7 0.00 0.00 0.00 80 1013.5
20260502101011 52 275 0.0 1.7 0.00 0.00 0.00 81 1013.7
20260502100507 52 279 0.0 1.7 0.00 0.00 0.00 81 1013.7
20260502091524 52 288 0.0 0.0 0.00 0.00 0.00 85 1014.3
20260502091010 52 288 0.0 0.0 0.00 0.00 0.00 85 1014.3
20260502090507 52 288 0.0 1.7 0.00 0.00 0.00 85 1014.1
20260502071516 52 292 0.0 1.7 0.00 0.00 0.00 83 1012.8
20260502071006 52 292 0.0 1.7 0.00 0.00 0.00 83 1012.9
20260502070503 52 292 0.0 0.9 0.00 0.00 0.00 83 1012.9
20260502070003 52 292 0.0 1.7 0.00 0.00 0.00 83 1012.8
20260502065504 52 292 0.0 1.7 0.00 0.00 0.00 83 1012.9
20260502065002 52 292 0.0 0.0 0.00 0.00 0.00 83 1012.9
20260502064512 53 292 0.0 1.7 0.00 0.00 0.00 83 1013.0
20260502064005 53 292 0.0 1.7 0.00 0.00 0.00 83 1013.1
20260502063504 53 292 0.0 0.0 0.00 0.00 0.00 83 1013.0